TimeCDT,TemperatureF,Dew PointF,Humidity,Sea Level PressureIn,VisibilityMPH,Wind Direction,Wind SpeedMPH,Gust SpeedMPH,PrecipitationIn,Events,Conditions,WindDirDegrees,DateUTC
12:58 AM,52.3,47.8,85,29.98,10.0,SSE,5.8,-,N/A,,Clear,160,2013-04-28 05:58:00
1:58 AM,47.8,46.0,93,29.98,10.0,South,5.8,-,N/A,,Clear,170,2013-04-28 06:58:00
2:58 AM,45.5,45.1,99,29.96,10.0,East,4.6,-,N/A,,Clear,100,2013-04-28 07:58:00
3:58 AM,41.9,41.7,99,29.94,10.0,ESE,6.9,-,N/A,,Clear,110,2013-04-28 08:58:00
4:58 AM,45.9,45.7,99,29.94,10.0,ESE,5.8,-,N/A,,Clear,120,2013-04-28 09:58:00
5:18 AM,44.6,44.6,100,29.93,9.0,ESE,5.8,-,N/A,,Clear,110,2013-04-28 10:18:00
5:58 AM,43.7,43.7,100,29.94,7.0,East,5.8,-,N/A,,Clear,100,2013-04-28 10:58:00
6:10 AM,42.8,42.8,100,29.92,6.0,ESE,3.5,-,N/A,,Clear,110,2013-04-28 11:10:00
6:58 AM,40.1,40.1,100,29.94,6.0,SE,5.8,-,N/A,,Clear,130,2013-04-28 11:58:00
7:58 AM,47.8,47.8,100,29.94,7.0,SE,6.9,-,N/A,,Clear,140,2013-04-28 12:58:00
8:58 AM,54.0,53.4,98,29.91,10.0,South,10.4,-,N/A,,Clear,170,2013-04-28 13:58:00
9:58 AM,59.2,54.0,83,29.90,10.0,South,9.2,-,N/A,,Clear,170,2013-04-28 14:58:00
10:58 AM,64.6,54.3,69,29.87,10.0,SSE,9.2,-,N/A,,Clear,150,2013-04-28 15:58:00
11:58 AM,70.2,53.1,55,29.83,10.0,SSE,13.8,-,N/A,,Partly Cloudy,160,2013-04-28 16:58:00
12:58 PM,73.9,50.5,44,29.81,10.0,South,12.7,20.7,N/A,,Scattered Clouds,170,2013-04-28 17:58:00
1:58 PM,75.9,47.8,37,29.78,10.0,South,15.0,-,N/A,,Partly Cloudy,180,2013-04-28 18:58:00
2:58 PM,79.7,47.1,32,29.76,10.0,South,12.7,24.2,N/A,,Clear,180,2013-04-28 19:58:00
3:57 PM,80.6,48.2,32,29.74,10.0,South,12.7,-,N/A,,Clear,170,2013-04-28 20:57:00
3:58 PM,80.4,47.7,32,29.75,10.0,South,12.7,-,N/A,,Clear,170,2013-04-28 20:58:00
4:58 PM,81.0,47.7,31,29.72,10.0,South,13.8,-,N/A,,Partly Cloudy,170,2013-04-28 21:58:00
5:58 PM,81.0,47.8,31,29.71,10.0,SSE,10.4,-,N/A,,Mostly Cloudy,160,2013-04-28 22:58:00
6:58 PM,78.8,50.0,36,29.71,10.0,SSE,10.4,-,N/A,,Clear,150,2013-04-28 23:58:00
7:58 PM,73.8,52.3,47,29.71,10.0,SSE,5.8,-,N/A,,Clear,150,2013-04-29 00:58:00
8:58 PM,65.1,51.1,60,29.72,10.0,ESE,5.8,-,N/A,,Clear,120,2013-04-29 01:58:00
9:58 PM,68.0,54.3,62,29.73,10.0,SSE,10.4,-,N/A,,Clear,150,2013-04-29 02:58:00
10:58 PM,66.7,54.7,65,29.74,10.0,SSE,10.4,-,N/A,,Clear,150,2013-04-29 03:58:00
11:58 PM,63.1,54.5,73,29.74,10.0,SSE,9.2,-,N/A,,Clear,150,2013-04-29 04:58:00